Location: Aytr�
(46.1357°N, 1.1145°W)
Time: 19:26:26
(UTC+00:00)

USA 308 - Pass Details

Date: 03 March 2021
Orbit: 568 x 576 km, 54.0° (Epoch: 22 April)

Event Time Altitude Azimuth Distance (km) Brightness Sun altitude
Rises 20:05:14 0° 295° (WNW) 2,777 7.8 -23.4°
Reaches altitude 10° 20:07:43 10° 306° (NW) 1,877 6.5 -23.8°
Maximum altitude 20:11:30 30° 8° (N) 1,046 4.2 -24.4°
Enters shadow 20:11:31 30° 9° (N) 1,046 4.2 -24.4°
